星链-1603 (STARLINK-1603 )

导读

STARLINK-1603是美国SpaceX星链计划中的卫星,于2020年8月18日发射升空,属于星链星座组网卫星,旨在为全球提供低延迟、高速率的宽带互联网服务。作为低轨通信卫星,它运行在近地轨道,承担着覆盖全球通信网络的组网任务,是星链大规模星座部署中的组成单元。

Basic Information
目录编号:
46162
目录名称:
STARLINK-1603
国际标识:
2020-057AX
轨道中心:
EARTH
卫星名称:
星链-1603
卫星全名:
星链-1603 (STARLINK-1603 )
卫星状态:
已陨落 最后检测时间 2025-02-27
发射日期:
2020-08-18 UTC
国别 :
美国 (US)
星等 :
--
Orbit Information
数据来源 国际轨道数据
星历时间: 2025-02-27T13:36:39+0800
轨道信息已过期476天
半长轴: 6522.519km
偏心率: 0.0011905
轨道倾角: 53.014°
近地点辐角 201.793°
升交点赤经 134.461°
平近点角 255.260°
近地点: 136.618km
远地点: 152.15km
周期: 87.374分钟
每日圈数: 16.480856
Detailed Information
固有亮度:
5
最大亮度:
2.5
卫星平台:
Starlink V1.0
覆盖范围:
全球
运营商:
太空探索技术公司
运营商所在国:
美国
制造商(研发单位):
太空探索技术公司
制造商所在国:
美国
使用方式:
暂无
Satellite Introduction
星链(Starlink)计划是由太空探索技术公司(SpaceX)提出的一个巨型低轨卫星互联网星座项目,计划在2019年至2024年间在太空搭建由约1.2万颗卫星组成的“星链”网络,其中1584颗将部署在地球上空550千米处的近地轨道,并从2020年开始工作。该卫星仍在工作。